Temperature
11 11 11 11 11 11 11 11 11 10 10 10 10 10 9 9 9 9 9 10 10 10 10 10 10 10 10 10 10 10 10 10 10 9 9 9 9 9 9 9 9 8 8
10 10 11 10 11 10 10 10 10 10 10 10 10 9 9 9 9 9 9 9 9 9 9 9 9 9 9 9 9 9 9 9 9 9 9 8 8 8 8 8 8 8 8
10 10 10 10 10 10 10 10 10 10 10 9 9 9 8 8 8 8 8 9 9 9 9 9 9 9 9 9 9 9 9 9 8 8 8 8 7 7 8 8 8 7 7
9 9 9 9 9 9 9 9 9 9 9 9 9 8 8 8 8 8 8 8 8 8 8 8 8 9 9 9 9 9 9 8 8 8 8 8 7 7 6 7 7 7 7
8 9 9 9 9 9 9 9 9 9 8 8 8 8 8 8 8 8 8 8 8 8 8 8 8 8 8 8 8 8 8 8 8 8 7 7 7 7 6 6 6 6 6
8 8 8 8 8 8 8 8 8 8 8 8 8 8 7 7 7 7 7 7 7 7 7 8 8 8 8 8 8 8 8 8 7 7 7 7 6 6 6 6 5 6 6
7 7 7 7 8 7 7 7 7 7 7 7 7 7 7 7 7 7 7 7 7 7 7 7 7 7 7 7 7 7 7 7 7 7 7 6 6 6 6 5 5 5 5
7 7 7 7 7 7 7 7 7 7 7 7 7 7 6 6 6 6 6 7 7 7 7 7 7 7 7 7 7 7 7 7 6 6 6 6 6 6 5 5 5 4 4
6 6 6 6 6 6 6 7 7 7 6 6 6 6 6 6 6 6 6 6 6 6 6 6 6 6 6 6 6 6 6 6 6 6 6 5 5 5 5 5 5 4 3
6 6 6 6 6 6 6 6 6 6 6 6 6 6 6 6 6 6 6 6 6 5 6 6 6 6 6 6 6 6 5 5 5 5 5 5 5 5 5 5 4 4 4
5 5 5 5 5 5 5 5 6 6 6 6 6 6 5 5 5 5 5 5 5 5 5 5 5 5 5 5 5 5 5 5 5 5 5 5 4 4 4 4 4 4 3
5 5 5 5 4 4 5 5 5 5 5 5 5 5 5 5 5 5 5 5 5 5 4 4 4 5 5 5 5 5 5 4 4 4 4 4 4 4 4 4 4 3 3
4 4 4 4 4 4 4 4 4 4 5 5 5 5 4 4 4 4 4 4 4 4 4 4 4 4 4 4 4 4 4 4 4 4 4 4 4 3 3 3 3 3 3
4 4 4 4 3 3 3 4 4 4 4 4 4 4 4 4 4 4 4 4 4 4 4 4 4 4 4 4 4 4 4 4 3 3 3 3 3 3 3 3 2 2 2
3 3 3 3 3 3 3 3 3 3 3 4 4 4 4 4 4 4 4 3 3 3 3 3 3 3 3 3 3 3 3 3 3 3 3 3 3 3 2 2 2 2 2
3 3 3 3 3 3 3 2 3 3 3 3 3 3 3 3 3 3 3 3 3 3 3 3 3 3 3 3 3 3 3 3 3 2 2 2 2 2 2 2 2 1 1
2 2 2 2 2 2 2 2 2 3 3 3 3 3 3 3 3 3 3 3 3 3 3 3 2 2 2 2 2 2 2 2 2 2 2 2 2 2 2 1 1 1 1
2 2 2 2 2 2 2 2 2 2 2 3 3 3 3 2 2 2 2 2 2 2 2 2 2 2 2 2 2 2 2 1 2 2 2 2 2 1 1 1 1 1 1
2 2 2 2 2 2 2 2 2 2 2 2 2 2 2 2 2 2 2 2 2 2 2 2 2 2 1 1 1 1 1 1 1 1 1 1 1 1 1 1 1 1 1
2 1 1 1 1 1 1 1 1 2 2 2 2 2 2 2 1 2 2 1 1 1 1 1 1 1 1 1 1 1 1 1 1 1 1 1 1 1 0 0 0 0 0
1 1 1 1 1 1 1 1 1 1 1 1 1 1 1 1 1 1 1 1 1 1 1 1 1 1 1 1 0 0 0 0 0 0 0 0 0 0 -0 -0 -0 -0 -0
1 1 1 1 1 1 1 1 1 1 1 1 1 1 1 1 1 0 0 0 0 0 0 0 0 0 0 -0 -0 -0 -0 -0 -0 0 0 -0 -0 -0 -0 -1 -1 -1 -1
0 0 0 0 0 0 0 0 0 0 0 -0 0 0 0 -0 -0 -0 -0 -0 -0 -0 -0 -1 -1 -0 -0 -1 -1 -1 -1 -1 -1 -0 -1 -1 -1 -1 -1 -1 -1 -1 -1
-0 -0 -0 -0 -0 -0 -0 -0 -0 -1 -1 -1 -1 -0 -0 -1 -1 -0 -0 -1 -1 -1 -1 -1 -1 -1 -1 -1 -1 -1 -1 -1 -1 -1 -1 -1 -1 -1 -1 -2 -2 -2 -2
-1 -1 -1 -1 -1 -1 -1 -1 -1 -1 -1 -1 -1 -1 -1 -1 -1 -1 -1 -1 -1 -1 -1 -1 -1 -1 -1 -1 -1 -1 -1 -2 -2 -2 -2 -2 -2 -2 -2 -2 -2 -2 -2
-2 -2 -2 -2 -1 -1 -1 -1 -1 -1 -1 -1 -2 -2 -2 -1 -1 -1 -1 -1 -1 -2 -2 -2 -2 -2 -2 -2 -2 -2 -2 -2 -2 -2 -2 -2 -2 -2 -2 -2 -2 -2 -2
Wind_Speed
6 4 4 4 5 6 6 7 7 6 6 5 5 4 4 3 3 4 6 7 7 7 6 4 3 3 3 3 4 4 3 2 2 2 2 3 2 2 1 1 2 2 1
3 2 2 3 5 6 7 7 7 7 6 6 5 3 3 2 2 3 4 6 7 7 6 5 4 4 3 3 4 4 3 2 2 2 2 1 2 2 2 1 1 1 2
5 3 3 3 4 6 7 7 7 6 5 5 4 4 3 2 1 2 3 3 5 6 6 6 5 4 4 4 4 4 4 3 1 1 3 3 2 1 2 2 1 1 1
3 3 3 4 5 6 6 6 6 6 5 5 6 7 5 4 3 3 3 3 4 5 6 6 5 4 4 4 4 4 3 4 3 1 0 1 2 2 1 2 2 2 1
3 3 3 4 4 4 5 5 6 5 5 6 7 7 5 3 2 2 3 3 2 3 5 5 5 4 4 5 5 4 4 3 4 3 2 1 1 1 2 2 2 2 2
1 1 1 2 2 3 3 4 5 5 5 6 6 6 6 5 4 3 4 3 2 2 3 4 5 4 4 5 5 5 5 4 3 3 3 3 2 2 2 2 2 2 2
1 1 1 2 2 3 3 4 5 5 5 6 6 6 6 7 6 5 5 4 2 2 4 4 4 4 4 5 4 4 4 4 4 3 3 3 3 2 2 2 1 2 2
1 1 1 2 2 3 3 4 4 4 4 5 5 5 5 5 4 5 5 5 4 3 4 4 4 5 5 5 4 4 4 4 4 3 3 2 2 2 3 3 2 1 2
1 1 1 1 2 2 3 4 4 3 4 4 4 5 5 5 5 5 4 4 3 3 3 3 4 4 5 5 5 4 4 4 4 4 3 3 2 2 2 2 3 3 2
0 0 0 1 1 1 2 2 3 4 3 4 4 4 4 5 5 5 5 4 4 3 4 4 4 4 4 5 5 4 3 4 4 3 4 3 2 2 2 2 2 2 3
1 1 1 1 1 0 1 2 2 2 3 3 3 4 4 4 4 4 5 5 4 4 5 5 5 4 4 4 5 4 4 4 4 3 4 4 3 2 2 2 2 2 2
1 1 1 1 1 1 1 1 1 2 3 3 3 4 3 3 3 3 4 4 4 4 5 5 5 5 5 5 6 5 5 5 5 5 5 5 3 3 3 2 2 2 2
2 1 0 1 1 1 1 1 2 2 3 3 3 3 4 4 4 4 3 3 4 5 5 5 6 5 5 5 5 5 5 5 6 6 6 5 5 5 3 3 3 2 2
2 1 1 2 2 1 1 1 2 2 2 3 3 4 4 4 4 3 3 3 4 5 5 5 5 5 5 5 5 5 5 5 5 5 5 5 6 6 5 4 3 3 2
2 2 3 3 2 2 1 1 2 2 2 2 3 4 4 3 3 3 3 3 3 4 4 4 4 4 4 5 5 5 5 5 5 4 5 5 6 6 5 4 4 4 3
4 3 3 3 3 3 3 2 2 2 2 3 3 3 3 3 3 3 3 3 3 3 3 4 4 4 4 6 7 5 5 5 5 5 4 4 5 6 6 6 5 5 4
4 4 4 4 4 4 3 3 3 2 2 3 3 3 3 3 3 3 3 3 3 3 3 3 4 5 5 6 7 6 5 5 5 5 4 3 4 5 3 5 5 6 6
5 5 4 4 3 3 3 3 2 2 2 2 3 3 3 3 2 3 3 3 3 3 3 3 4 4 5 6 7 6 4 4 4 5 5 5 4 4 4 3 3 4 4
5 4 4 4 3 3 3 2 2 2 2 3 3 4 4 4 3 3 3 3 3 3 3 3 3 4 5 6 7 6 4 4 4 4 5 5 5 5 5 4 3 3 3
3 3 3 2 3 3 2 2 3 3 3 4 4 3 4 4 4 4 3 2 3 3 3 3 3 4 4 6 7 6 4 4 3 3 4 5 5 5 5 4 4 4 4
2 2 2 2 3 3 3 3 3 4 4 3 3 3 3 4 4 3 3 3 3 2 2 3 3 4 5 5 7 7 4 4 4 3 3 4 5 5 5 5 4 5 3
2 1 2 2 2 2 3 4 4 4 2 2 2 2 3 3 3 3 2 3 3 3 3 2 3 3 4 5 6 6 6 4 4 4 3 3 5 5 5 4 4 3 2
2 2 2 2 2 2 3 4 4 2 2 2 2 2 2 2 2 3 3 3 3 3 3 3 3 3 2 3 5 5 5 5 3 3 4 4 4 3 3 4 4 3 2
2 2 2 2 3 3 2 3 3 2 3 3 2 2 2 2 2 2 3 3 4 4 4 4 4 3 3 3 3 3 3 3 3 2 2 3 3 2 2 3 3 2 2
2 2 2 3 3 3 3 2 2 2 2 3 3 2 3 3 3 3 3 4 4 5 5 5 4 4 4 5 5 3 3 3 3 2 1 1 1 1 1 1 1 2 2
2 2 3 3 3 3 3 3 2 3 3 3 2 2 2 2 2 2 2 3 4 6 6 6 5 5 6 6 5 5 5 5 4 3 2 2 2 3 3 2 2 2 2
Wind_Direction
249 227 204 190 176 170 173 177 172 169 160 161 163 162 178 178 176 170 165 163 163 163 156 154 154 152 163 166 152 134 120 110 115 88 40 12 9 26 43 83 85 64 55
252 232 190 177 178 179 178 177 175 171 175 176 172 167 163 176 181 166 161 164 164 167 167 164 169 166 161 153 148 137 135 133 128 127 121 19 347 356 10 23 68 52 48
215 209 189 193 181 185 184 180 177 172 172 160 145 130 108 100 123 163 172 168 167 172 173 171 169 170 166 170 170 158 155 163 168 146 151 162 208 271 329 338 359 3 19
205 201 194 200 193 194 185 177 171 165 162 155 156 156 165 184 198 188 183 173 168 171 172 171 169 171 171 170 178 171 165 160 171 185 131 153 157 167 242 314 319 321 313
203 200 200 193 189 181 175 173 163 161 161 164 163 164 167 178 156 150 162 170 176 172 170 172 172 175 179 177 176 170 167 170 175 176 167 123 106 158 176 231 286 318 296
202 186 184 155 146 146 157 158 157 163 164 166 167 171 171 164 156 161 173 184 184 189 183 175 176 179 182 181 179 178 172 175 173 173 169 168 169 185 175 209 252 275 283
181 146 126 135 142 146 155 157 155 163 166 167 170 173 175 173 176 178 181 183 192 209 207 194 186 184 186 183 179 177 177 175 176 181 186 188 191 180 177 183 230 268 283
163 181 171 161 165 164 156 155 158 165 168 170 174 170 169 176 182 183 181 188 202 209 202 195 189 184 183 179 176 180 184 178 182 190 190 194 204 188 178 178 175 262 292
184 189 187 176 178 175 173 169 168 168 171 173 170 170 174 181 184 183 184 191 199 200 186 192 190 187 183 179 177 190 192 181 188 194 196 203 208 201 191 180 175 181 237
269 10 193 207 196 192 186 167 168 171 174 173 177 174 174 183 182 176 185 192 196 196 182 190 191 190 188 182 182 191 193 186 196 196 193 207 207 201 198 183 187 190 206
279 259 266 238 203 142 161 171 171 168 171 178 177 169 176 178 176 182 193 194 195 194 192 197 197 199 199 192 190 195 193 195 204 201 202 213 201 199 210 191 184 196 197
290 267 231 194 170 185 200 201 192 187 192 187 181 177 180 176 179 190 199 195 195 197 197 194 197 200 200 200 195 198 199 202 207 208 207 215 207 205 212 206 202 208 209
297 315 252 199 210 221 212 220 224 213 206 189 182 179 184 189 196 200 198 195 195 193 191 191 197 199 201 203 202 201 204 208 212 209 208 213 206 213 212 211 215 216 225
238 262 252 223 219 231 226 227 252 238 215 192 185 191 199 200 200 195 193 202 198 194 192 195 196 197 198 203 202 203 206 210 216 215 212 212 210 212 208 212 216 213 214
257 251 240 230 225 235 251 249 252 252 222 196 199 208 201 193 190 192 203 203 199 200 194 194 196 197 200 203 198 203 206 206 213 221 223 221 217 219 216 214 208 201 207
254 254 247 229 226 231 233 243 255 248 221 207 208 207 195 189 191 201 202 195 196 196 195 201 201 207 215 214 210 206 203 206 208 218 226 229 225 229 231 231 224 211 208
251 252 248 240 236 235 229 233 245 246 225 215 208 201 193 198 200 191 185 194 198 194 205 216 209 216 220 218 216 214 203 205 208 209 213 230 240 229 217 234 237 235 231
246 247 245 252 257 247 239 235 240 230 225 217 210 203 192 193 192 186 194 202 200 197 206 216 215 218 226 222 220 217 210 207 210 215 216 222 231 229 213 211 225 231 235
237 238 238 238 242 244 241 237 246 235 225 221 218 208 193 189 192 207 216 208 197 207 210 210 213 220 235 226 219 212 205 209 219 226 224 220 222 230 224 212 221 239 259
228 232 241 237 237 242 228 225 238 235 234 227 220 209 192 188 200 211 214 202 199 211 209 215 222 226 232 228 218 210 200 207 219 228 231 231 226 230 227 211 208 228 245
239 236 231 239 246 240 214 224 231 237 244 234 211 200 194 193 197 197 199 188 192 197 210 219 235 233 233 229 220 211 200 204 209 220 230 232 233 241 236 219 216 230 229
250 241 247 266 266 234 206 223 236 240 233 212 205 203 201 199 186 180 194 189 185 195 215 224 246 245 236 232 226 221 222 208 203 216 223 231 235 240 242 231 228 227 213
253 256 244 267 282 254 212 225 244 228 206 200 211 211 202 197 187 186 194 193 192 202 219 222 239 249 237 234 235 229 225 219 218 222 226 229 233 234 233 228 223 213 200
260 263 248 255 280 278 244 232 237 210 190 201 215 208 194 204 202 204 203 207 210 214 222 226 234 241 235 223 225 229 230 228 234 226 217 217 217 217 219 219 219 217 211
267 249 240 247 264 272 266 248 221 194 198 208 211 211 205 206 213 219 220 222 224 220 223 225 222 221 231 234 234 218 215 214 212 187 157 152 171 206 220 227 225 212 209
264 254 257 258 264 268 274 272 231 193 193 211 217 215 213 212 212 221 260 260 244 239 237 235 230 239 238 234 231 235 235 221 191 165 175 192 206 216 221 224 235 232 227
Height
1472 1473 1474 1476 1477 1479 1481 1483 1484 1486 1488 1490 1492 1494 1496 1498 1500 1502 1504 1506 1508 1509 1510 1512 1513 1514 1515 1516 1516 1517 1518 1519 1519 1520 1521 1522 1522 1523 1523 1524 1524 1524 1524
1468 1469 1471 1472 1473 1474 1476 1478 1480 1482 1484 1486 1488 1490 1493 1495 1497 1499 1501 1503 1505 1506 1508 1509 1510 1511 1512 1513 1514 1514 1515 1516 1517 1518 1519 1520 1521 1520 1520 1521 1521 1521 1521
1464 1466 1467 1468 1469 1471 1473 1474 1476 1478 1480 1482 1485 1487 1490 1492 1494 1496 1497 1500 1502 1503 1505 1506 1507 1508 1509 1510 1511 1512 1512 1513 1515 1516 1517 1517 1516 1517 1518 1518 1519 1519 1519
1462 1463 1464 1465 1466 1468 1470 1471 1473 1475 1477 1479 1481 1483 1485 1487 1489 1492 1494 1496 1498 1500 1501 1503 1504 1505 1507 1507 1508 1509 1510 1511 1512 1513 1514 1515 1514 1515 1514 1515 1516 1516 1516
1459 1460 1461 1462 1463 1465 1467 1468 1470 1472 1474 1475 1477 1479 1482 1484 1487 1489 1491 1493 1495 1497 1498 1500 1501 1502 1504 1504 1506 1507 1508 1508 1509 1510 1510 1511 1511 1512 1512 1511 1512 1512 1513
1458 1458 1459 1459 1461 1462 1464 1465 1467 1469 1471 1472 1474 1476 1478 1481 1483 1485 1487 1489 1491 1493 1495 1496 1498 1499 1500 1501 1502 1504 1504 1505 1506 1507 1507 1508 1508 1508 1509 1508 1508 1508 1509
1456 1456 1457 1458 1459 1460 1462 1463 1464 1466 1468 1470 1471 1473 1476 1478 1480 1482 1484 1486 1487 1489 1491 1493 1494 1496 1497 1498 1499 1500 1501 1502 1502 1503 1504 1504 1505 1506 1506 1506 1505 1505 1505
1455 1455 1455 1456 1457 1458 1460 1461 1462 1463 1465 1467 1468 1471 1473 1475 1477 1479 1481 1482 1484 1486 1488 1490 1491 1492 1493 1494 1496 1496 1497 1498 1499 1500 1500 1501 1502 1502 1503 1503 1503 1502 1501
1453 1454 1455 1455 1456 1457 1458 1459 1460 1461 1463 1464 1466 1468 1470 1472 1474 1476 1478 1479 1481 1483 1485 1486 1487 1489 1490 1491 1492 1493 1493 1494 1495 1496 1497 1497 1498 1499 1499 1500 1500 1501 1499
1453 1453 1454 1454 1455 1456 1457 1458 1458 1459 1460 1462 1463 1465 1467 1469 1471 1473 1474 1476 1478 1479 1481 1482 1484 1485 1486 1487 1488 1489 1490 1490 1491 1492 1493 1494 1494 1495 1496 1496 1496 1497 1497
1453 1453 1453 1453 1454 1455 1455 1456 1457 1457 1458 1460 1461 1462 1464 1466 1468 1469 1471 1473 1474 1475 1477 1478 1480 1481 1482 1483 1484 1485 1486 1487 1488 1489 1489 1490 1491 1491 1492 1492 1492 1493 1493
1452 1452 1452 1452 1453 1453 1454 1454 1455 1455 1456 1458 1459 1460 1461 1463 1464 1466 1467 1469 1470 1472 1473 1474 1476 1476 1477 1479 1480 1481 1482 1483 1484 1485 1485 1486 1487 1487 1488 1489 1488 1489 1489
1451 1451 1451 1451 1451 1452 1452 1452 1453 1454 1454 1455 1456 1457 1458 1460 1461 1462 1464 1465 1467 1468 1469 1470 1472 1473 1473 1475 1476 1477 1478 1479 1480 1481 1482 1482 1483 1483 1484 1485 1485 1485 1485
1450 1449 1449 1449 1450 1450 1450 1450 1451 1451 1452 1452 1453 1454 1455 1456 1458 1459 1461 1462 1463 1464 1465 1466 1467 1468 1470 1471 1472 1473 1474 1475 1476 1477 1478 1478 1479 1479 1480 1480 1481 1481 1481
1447 1447 1447 1448 1448 1448 1448 1448 1448 1449 1449 1449 1450 1451 1452 1454 1455 1456 1458 1459 1460 1460 1462 1463 1464 1464 1465 1467 1468 1469 1470 1471 1472 1473 1474 1474 1475 1476 1476 1477 1477 1477 1477
1445 1445 1445 1445 1445 1445 1445 1446 1446 1446 1446 1446 1447 1448 1449 1450 1452 1453 1454 1455 1456 1457 1458 1459 1460 1460 1461 1463 1464 1465 1466 1467 1468 1468 1469 1470 1471 1472 1472 1473 1473 1474 1474
1444 1444 1443 1443 1443 1443 1443 1442 1443 1443 1443 1443 1444 1445 1446 1447 1448 1450 1451 1452 1453 1454 1454 1455 1456 1457 1458 1459 1460 1461 1462 1463 1464 1464 1465 1466 1467 1467 1468 1468 1469 1469 1469
1441 1441 1441 1441 1440 1440 1440 1440 1440 1440 1440 1440 1441 1442 1443 1444 1445 1446 1447 1448 1449 1450 1451 1452 1452 1453 1454 1455 1456 1457 1458 1459 1460 1460 1461 1462 1462 1463 1463 1464 1464 1464 1464
1438 1438 1438 1438 1437 1437 1437 1437 1436 1437 1437 1437 1438 1439 1440 1441 1441 1443 1444 1445 1445 1446 1447 1448 1449 1449 1450 1451 1452 1453 1454 1455 1455 1456 1457 1458 1458 1459 1460 1460 1460 1460 1460
1435 1435 1435 1434 1434 1434 1434 1434 1433 1433 1434 1434 1435 1436 1437 1437 1438 1439 1440 1441 1442 1443 1443 1444 1445 1446 1446 1447 1448 1449 1450 1450 1451 1452 1452 1453 1454 1455 1455 1456 1456 1456 1456
1432 1432 1431 1431 1430 1430 1431 1430 1430 1430 1430 1431 1432 1433 1433 1434 1435 1436 1437 1437 1438 1439 1440 1440 1441 1442 1443 1443 1444 1445 1446 1446 1447 1447 1448 1449 1450 1451 1451 1452 1452 1452 1452
1428 1428 1427 1427 1427 1427 1427 1427 1427 1427 1428 1428 1429 1429 1430 1431 1431 1432 1433 1434 1435 1435 1436 1436 1437 1438 1439 1439 1440 1441 1442 1443 1443 1443 1444 1445 1446 1447 1447 1448 1448 1448 1449
1425 1425 1424 1424 1423 1423 1424 1423 1424 1424 1424 1425 1425 1426 1427 1427 1428 1429 1429 1430 1431 1432 1432 1432 1432 1433 1434 1435 1436 1437 1438 1438 1439 1440 1441 1441 1442 1442 1443 1444 1444 1444 1444
1421 1421 1421 1420 1420 1420 1420 1420 1420 1421 1421 1421 1422 1422 1423 1424 1424 1425 1426 1426 1427 1427 1428 1428 1428 1429 1430 1430 1431 1432 1433 1434 1435 1436 1437 1437 1438 1438 1439 1439 1440 1440 1441
1417 1417 1417 1416 1416 1416 1416 1417 1417 1417 1417 1418 1418 1419 1419 1420 1421 1421 1422 1423 1423 1424 1424 1425 1425 1425 1425 1426 1428 1428 1429 1430 1431 1432 1432 1433 1433 1434 1435 1435 1436 1436 1437
1413 1413 1413 1412 1412 1413 1413 1413 1414 1414 1414 1414 1415 1415 1416 1416 1417 1418 1418 1419 1420 1420 1421 1421 1422 1422 1423 1423 1424 1425 1426 1427 1427 1428 1427 1428 1429 1430 1431 1431 1432 1432 1433